Probability
0 0 0 0 0 0 0 0 0 0 0 0 0 0 0 0 0 0 0 0 0 0 0 0 0 0 0 0 0 0 0 0 0 0 0 0 0 0
0 0 0 0 0 0 0 0 0 0 0 0 0 0 0 0 0 0 0 0 0 0 0 0 0 0 0 0 0 0 0 0 0 0 0 0 0 0
0 0 0 0 0 0 0 0 0 0 0 0 0 0 0 0 0 0 0 0 0 0 0 0 0 0 0 0 0 0 0 0 0 0 0 0 0 0
0 0 0 0 0 0 0 0 0 0 0 0 0 0 0 0 0 0 0 0 0 0 0 0 0 0 0 0 0 0 0 0 0 0 0 0 0 0
0 0 0 0 0 0 0 0 0 0 0 0 0 0 0 0 0 0 0 0 0 0 0 0 0 0 0 0 0 0 0 0 0 0 0 0 0 0
0 0 0 0 0 0 0 0 0 0 0 0 0 0 0 0 0 0 0 0 0 0 0 0 0 0 0 0 0 0 0 0 0 0 0 0 0 0
0 0 0 0 0 0 0 0 0 0 0 0 0 0 0 0 0 0 0 0 0 0 0 0 0 0 0 0 0 0 0 0 0 0 0 0 0 0
0 0 0 0 0 0 0 0 0 0 0 0 0 0 0 0 0 0 0 0 0 0 0 0 0 0 0 0 0 0 0 0 0 0 0 0 0 0
0 0 0 0 0 0 0 0 0 0 0 0 0 0 0 0 0 0 0 0 0 0 0 0 0 0 0 0 0 0 0 0 0 0 0 0 0 0
0 0 0 0 0 0 0 0 0 0 0 0 0 0 0 0 0 0 0 0 0 0 0 0 0 0 0 0 0 0 0 0 0 0 0 0 0 0
0 0 0 0 0 0 0 0 0 0 0 0 0 0 0 0 0 0 0 0 0 0 0 0 0 0 0 0 0 0 0 0 0 0 0 0 0 0
0 0 0 0 0 0 0 0 0 0 0 0 0 0 0 0 0 0 0 0 0 0 0 0 0 0 0 0 0 0 0 0 0 0 0 0 0 0
0 0 0 0 0 0 0 0 0 0 0 0 0 0 0 0 0 0 0 0 0 0 0 0 0 0 0 0 0 0 0 0 0 0 0 0 0 0
0 0 0 0 0 0 0 0 0 0 0 0 0 0 0 0 0 0 0 0 0 0 0 0 0 0 0 0 0 0 0 0 0 0 0 0 0 0
0 0 0 0 0 0 0 0 0 0 0 0 0 0 0 0 0 0 0 0 0 0 0 0 0 0 0 0 0 0 0 0 0 0 0 0 0 0
0 0 0 0 0 0 0 0 0 0 0 0 0 0 0 0 0 0 0 0 0 0 0 0 0 0 0 0 0 0 0 0 0 0 0 0 0 0
0 0 0 0 0 0 0 0 0 0 0 0 0 0 0 0 0 0 0 0 0 0 0 0 0 0 0 0 0 0 0 0 0 0 0 0 0 0
0 0 0 0 0 0 0 0 0 0 0 0 0 0 0 0 0 0 0 0 0 0 0 0 0 0 0 0 0 0 0 0 0 0 0 0 0 0
0 0 0 0 0 0 0 0 0 0 0 0 0 0 0 0 0 0 0 0 0 0 0 0 0 0 0 0 0 0 0 0 0 0 0 0 0 0
0 0 0 0 0 0 0 0 0 0 0 0 0 0 0 0 0 0 0 0 0 0 0 0 0 0 0 0 0 0 0 0 0 0 0 0 0 0
0 0 0 0 0 0 0 0 0 0 0 0 0 0 0 0 0 0 0 0 0 0 0 0 0 0 0 0 0 0 0 0 0 0 0 0 0 0
0 0 0 0 0 0 0 0 0 0 0 0 0 0 0 0 0 0 0 0 0 0 0 0 0 0 0 0 0 0 0 0 0 0 0 0 0 0
0 0 0 0 0 0 0 0 0 0 0 0 0 0 0 0 0 0 0 0 0 0 0 0 0 0 0 0 0 0 0 0 0 0 0 0 0 0
Wind_Speed
2 2 1 1 2 2 2 3 4 3 3 5 4 3 3 4 10 8 7 13 14 12 11 10 9 8 8 8 7 6 5 5 4 5 5 6 6 7
2 1 2 2 2 3 3 3 4 4 3 3 3 2 1 2 8 7 7 15 17 15 14 13 12 11 10 9 8 8 7 7 7 6 6 6 7 8
2 4 5 5 3 2 2 2 3 3 4 4 2 2 1 1 3 3 4 5 8 16 16 15 15 14 12 11 10 9 9 9 8 7 7 7 7 8
4 3 3 2 2 0 0 2 2 3 4 4 3 2 3 2 2 3 3 4 6 14 17 17 16 15 14 13 12 11 10 10 9 8 8 8 8 8
3 2 2 3 2 1 1 1 2 2 3 3 3 3 3 2 2 3 4 4 4 7 14 15 15 15 14 14 13 13 12 11 10 10 9 9 8 8
2 1 1 2 3 3 2 2 2 2 1 2 3 2 2 3 2 3 3 4 3 3 6 8 11 14 15 15 15 14 13 13 12 11 11 10 10 9
3 2 1 6 7 3 1 2 3 2 1 0 1 1 1 2 3 2 3 3 3 2 2 3 5 6 8 13 16 16 15 15 14 13 12 11 11 10
2 2 1 3 6 5 4 3 2 1 2 1 1 1 2 1 1 1 1 0 2 1 0 2 1 3 4 5 10 16 18 16 14 13 13 12 12 11
2 2 2 1 3 3 5 7 6 6 3 1 2 1 1 1 1 1 1 1 1 1 1 2 2 2 2 2 5 6 11 12 12 12 12 12 11 11
2 3 2 2 1 2 2 2 2 4 5 3 2 3 3 3 2 1 1 0 1 0 1 1 2 2 3 4 8 7 3 2 4 6 8 9 10 10
3 3 2 2 4 4 2 3 3 1 3 3 4 3 2 2 2 2 1 1 1 1 1 1 2 2 2 2 4 7 5 4 4 5 6 6 7 7
5 4 7 7 7 6 3 3 3 3 2 2 2 2 1 2 1 0 0 1 1 1 1 1 2 2 2 2 2 2 2 2 3 4 5 5 4 3
5 3 3 7 6 5 4 2 2 3 3 2 3 3 2 2 1 1 1 1 1 1 1 1 1 1 1 2 2 1 1 1 2 2 3 4 5 4
4 3 2 4 4 4 2 1 2 3 1 1 2 2 2 1 1 1 2 2 3 3 3 2 1 0 1 2 3 2 2 2 2 2 1 1 4 7
3 4 3 4 5 4 5 4 3 2 0 1 2 2 2 2 2 2 2 3 3 3 2 1 1 0 0 1 3 3 3 2 0 1 1 1 2 2
4 3 3 3 2 4 2 3 2 1 1 2 2 2 2 2 2 2 2 1 1 1 0 1 1 1 1 2 2 3 3 3 3 2 2 2 3 2
4 3 3 2 2 1 1 1 1 2 2 2 3 3 3 3 3 3 3 3 3 2 3 4 4 3 2 1 2 3 4 4 4 4 3 3 3 4
7 5 6 5 5 4 4 4 4 4 4 4 4 4 4 4 3 4 4 4 4 4 4 4 5 5 4 6 7 4 4 4 4 5 4 3 3 5
9 8 7 7 7 6 6 6 5 5 5 5 5 5 5 5 5 5 5 5 4 4 4 4 4 4 4 3 4 7 4 3 4 4 4 3 3 3
7 7 7 7 7 7 6 6 6 6 6 6 5 5 5 5 4 4 4 4 3 4 4 4 3 3 2 2 2 2 6 4 3 4 4 4 3 4
5 6 6 6 6 6 5 5 6 6 6 5 5 5 4 4 4 3 3 4 4 4 4 3 3 4 2 2 2 2 2 4 4 2 3 3 4 4
4 5 6 6 6 6 5 5 5 5 6 5 4 4 4 4 4 4 4 3 3 3 3 3 4 4 4 3 3 3 2 2 2 2 2 2 1 2
4 4 4 5 5 5 5 5 5 4 4 4 4 3 3 3 3 3 3 4 3 4 3 3 4 4 3 3 3 3 4 4 3 3 3 2 1 3
Wind_Direction
37 59 128 196 226 240 226 198 193 228 250 242 244 234 204 183 170 182 177 191 194 198 199 199 202 209 217 218 216 210 210 217 233 252 264 274 283 294
81 10 301 245 230 231 231 226 206 203 238 253 227 234 215 174 170 185 193 193 200 200 202 203 205 210 217 220 218 212 211 218 229 240 252 264 275 284
243 219 229 226 219 221 221 221 225 212 230 259 243 237 211 197 172 221 212 189 200 205 206 207 207 210 216 221 222 219 218 222 231 241 251 262 271 279
274 263 243 194 167 188 270 257 245 230 223 249 252 239 234 224 204 231 239 213 200 208 210 211 211 212 216 220 224 223 223 224 228 238 249 259 269 280
257 285 8 62 69 42 328 307 283 265 224 225 247 233 236 232 233 246 251 253 234 205 206 212 215 216 218 221 224 226 225 225 226 229 238 250 262 272
300 251 194 110 85 44 23 8 340 310 256 233 247 241 233 227 206 228 246 248 239 216 199 207 216 220 223 225 228 228 227 227 228 228 230 235 244 255
326 327 94 115 111 97 55 7 357 339 339 294 278 269 249 219 211 203 230 259 266 239 215 209 206 215 223 232 235 235 230 227 227 227 229 231 235 242
301 322 98 156 154 166 196 220 234 344 10 11 328 296 285 252 231 188 207 247 283 323 342 280 226 234 230 220 226 227 229 228 225 225 228 231 232 237
297 306 316 331 169 203 219 226 232 225 224 347 1 353 18 58 114 134 172 195 255 333 36 306 313 301 303 326 326 260 232 230 230 230 231 233 233 233
285 273 270 283 313 4 337 261 240 194 205 201 93 76 66 50 60 69 98 44 304 350 77 315 347 352 7 14 24 32 21 295 266 258 251 245 241 238
338 345 351 4 50 28 348 341 9 56 171 126 109 108 103 75 49 46 40 24 316 345 53 6 345 338 3 6 16 27 22 4 333 308 292 278 262 250
349 24 51 54 49 32 4 8 21 8 28 139 149 164 155 163 181 198 104 67 10 36 41 29 2 359 360 344 339 351 359 345 314 293 285 281 270 248
345 8 44 46 41 26 4 15 55 344 350 63 89 83 67 74 91 94 82 88 86 95 150 122 43 20 360 319 310 287 274 286 304 298 279 256 238 222
313 324 7 14 354 327 311 338 350 336 332 59 93 91 81 69 71 74 64 71 85 121 155 148 102 47 347 327 312 308 286 259 257 292 308 249 247 242
303 309 306 308 314 296 249 239 259 266 199 111 109 98 82 75 69 52 42 65 77 94 124 136 121 11 345 301 307 317 322 317 337 349 339 306 276 252
339 321 286 275 286 295 292 208 224 227 140 119 111 102 87 74 62 48 38 33 62 25 293 207 228 237 276 284 297 314 335 345 352 344 335 325 327 344
354 7 23 22 7 357 17 62 85 90 80 76 86 82 74 69 53 37 30 36 51 38 12 356 344 328 304 323 1 9 18 16 4 354 357 352 7 39
32 31 30 27 29 37 48 51 50 58 69 73 72 71 70 68 53 33 31 44 46 38 30 13 7 4 9 41 41 43 30 9 353 356 4 4 14 56
40 35 33 34 35 40 43 50 50 46 55 60 60 57 58 57 55 50 37 33 32 28 27 23 26 29 21 357 11 42 33 6 357 359 1 1 355 41
35 33 32 33 37 40 40 42 43 41 45 50 51 52 56 61 58 54 50 32 22 19 16 19 28 23 356 303 307 34 39 32 12 1 351 346 14 80
31 29 26 27 31 33 35 41 46 46 45 47 46 45 49 58 55 49 49 36 29 23 15 359 344 341 320 357 17 34 34 43 62 46 360 4 5 13
37 36 29 26 23 23 26 36 47 47 43 42 38 35 36 47 49 45 40 35 26 17 3 350 356 9 21 32 37 32 17 10 40 61 79 91 50 15
42 48 39 26 21 18 21 33 44 46 43 40 35 28 33 38 41 44 36 39 31 11 6 12 3 6 15 33 51 41 25 15 6 12 3 342 274 266